TimeEST,TemperatureF,Dew PointF,Humidity,Sea Level PressureIn,VisibilityMPH,Wind Direction,Wind SpeedMPH,Gust SpeedMPH,PrecipitationIn,Events,Conditions,WindDirDegrees,DateUTC
12:00 AM,35.6,33.8,93,30.64,6.0,NNE,3.5,-,N/A,,Clear,30,2012-11-18 05:00:00
1:00 AM,33,30,85,30.63,6,North,2.3,,,,Mist,10,2012-11-18 06:00:00
1:00 AM,33.8,30.2,87,30.63,6.0,North,2.3,-,N/A,,Clear,10,2012-11-18 06:00:00
2:00 AM,32.0,30.2,93,30.63,4.0,NNE,3.5,-,N/A,,Clear,20,2012-11-18 07:00:00
3:00 AM,33.8,30.2,87,30.62,4.0,North,3.5,-,N/A,,Clear,360,2012-11-18 08:00:00
4:00 AM,33.8,30.2,87,30.62,4.0,NNE,3.5,-,N/A,,Clear,20,2012-11-18 09:00:00
5:00 AM,32.0,28.4,87,30.63,4.0,North,2.3,-,N/A,,Clear,360,2012-11-18 10:00:00
6:00 AM,32.0,30.2,93,30.63,5.0,North,3.5,-,N/A,,Clear,360,2012-11-18 11:00:00
6:14 AM,32.0,-9999,N/A,-9999,5.0,North,3.5,-,N/A,,Partly Cloudy,10,2012-11-18 11:14:00
7:00 AM,34,32,89,30.63,3,NNE,5.8,,,,Mist,30,2012-11-18 12:00:00
7:00 AM,33.8,32.0,93,30.63,3.0,NNE,6.9,-,N/A,,Partly Cloudy,30,2012-11-18 12:00:00
7:22 AM,33.8,-9999,N/A,-9999,2.2,NNE,6.9,-,N/A,,Scattered Clouds,30,2012-11-18 12:22:00
8:00 AM,33.8,33.8,100,30.63,1.5,NNE,4.6,-,N/A,,Mostly Cloudy,20,2012-11-18 13:00:00
8:16 AM,35.6,-9999,N/A,-9999,0.8,NNE,5.8,-,N/A,,Mostly Cloudy,30,2012-11-18 13:16:00
8:26 AM,35.6,-9999,N/A,-9999,0.5,NE,4.6,-,N/A,Fog,Fog,40,2012-11-18 13:26:00
8:37 AM,37.4,-9999,N/A,-9999,0.2,NNE,4.6,-,N/A,Fog,Fog,30,2012-11-18 13:37:00
9:00 AM,39.2,37.4,93,30.64,0.2,NE,4.6,-,N/A,Fog,Fog,40,2012-11-18 14:00:00
9:14 AM,39.2,-9999,N/A,-9999,0.8,NE,4.6,-,N/A,,Mostly Cloudy,40,2012-11-18 14:14:00
9:20 AM,39.2,-9999,N/A,-9999,1.5,NE,3.5,-,N/A,,Mostly Cloudy,50,2012-11-18 14:20:00
9:34 AM,41.0,-9999,N/A,-9999,3.0,East,4.6,-,N/A,,Mostly Cloudy,80,2012-11-18 14:34:00
10:00 AM,44.6,41.0,87,30.63,6.0,East,8.1,-,N/A,,Partly Cloudy,80,2012-11-18 15:00:00
11:00 AM,48.2,33.8,58,30.62,15.0,ESE,11.5,-,N/A,,Mostly Cloudy,110,2012-11-18 16:00:00
12:00 PM,50.0,33.8,54,30.60,15.0,East,8.1,-,N/A,,Mostly Cloudy,90,2012-11-18 17:00:00
1:00 PM,49,33,41,30.57,15,East,9.2,,,,Partly Cloudy,90,2012-11-18 18:00:00
1:00 PM,50.0,32.0,50,30.57,15.0,East,9.2,-,N/A,,Partly Cloudy,100,2012-11-18 18:00:00
2:00 PM,50.0,33.8,54,30.56,15.0,East,8.1,-,N/A,,Mostly Cloudy,90,2012-11-18 19:00:00
3:00 PM,48.2,32.0,54,30.56,15.0,East,9.2,-,N/A,,Mostly Cloudy,90,2012-11-18 20:00:00
4:00 PM,46.4,33.8,62,30.56,15.0,East,8.1,-,N/A,,Mostly Cloudy,90,2012-11-18 21:00:00
5:00 PM,44.6,33.8,66,30.56,15.0,East,9.2,-,N/A,,Mostly Cloudy,90,2012-11-18 22:00:00
6:00 PM,42.8,33.8,70,30.55,15.0,East,8.1,-,N/A,,Mostly Cloudy,90,2012-11-18 23:00:00
7:00 PM,43,35,64,30.56,15,East,6.9,,,,Clear,100,2012-11-19 00:00:00
7:00 PM,42.8,35.6,76,30.56,15.0,East,6.9,-,N/A,,Mostly Cloudy,100,2012-11-19 00:00:00
8:00 PM,41.0,35.6,81,30.55,15.0,ESE,5.8,-,N/A,,Partly Cloudy,110,2012-11-19 01:00:00
9:00 PM,41.0,35.6,81,30.54,15.0,East,3.5,-,N/A,,Partly Cloudy,80,2012-11-19 02:00:00
10:00 PM,41.0,35.6,81,30.53,15.0,East,4.6,-,N/A,,Partly Cloudy,80,2012-11-19 03:00:00
11:00 PM,33.8,32.0,93,30.52,12.0,NNE,5.8,-,N/A,,Partly Cloudy,30,2012-11-19 04:00:00